When you browse on this site, cookies collect data to enhance your experience and personalize the content and advertising you see.
Visit our Privacy Policy to learn more. By continuing to use the site, you agree to this use of cookies and data.
  • în România
  • Lista ţărilor
  • Pe 7 zile
  • Temperatura apei
  • Hartă satelitară
  • Meteo pe hartă
  • Widget-uri
  • user-avatar
    Intrare

    Meteo pe oră la Arnoldstein

    Astăzi, 18 Februarie, Luni

    Timp Temperatura Precipitaţii Vânt Presiune Umiditate
    00:00 +3°C° 0 mm 1 m/s 696 mmHg 68%
    01:00 +2°C° 0 mm 1 m/s 696 mmHg 66%
    02:00 +2°C° 0 mm 1 m/s 695 mmHg 64%
    03:00 +2°C° 0 mm 1 m/s 695 mmHg 63%
    04:00 +2°C° 0 mm 1 m/s 695 mmHg 61%
    05:00 +2°C° 0 mm 1 m/s 695 mmHg 60%
    06:00 +2°C° 0 mm 1 m/s 695 mmHg 59%
    07:00 +1°C° 0 mm 1 m/s 695 mmHg 58%
    08:00 +4°C° 0 mm 1 m/s 695 mmHg 57%
    09:00 +6°C° 0 mm 1 m/s 695 mmHg 56%
    10:00 +8°C° 0 mm 0 m/s 695 mmHg 56%
    11:00 +9°C° 0 mm 0 m/s 695 mmHg 53%
    12:00 +11°C° 0 mm 1 m/s 695 mmHg 51%
    13:00 +12°C° 0 mm 1 m/s 695 mmHg 50%
    14:00 +12°C° 0 mm 1 m/s 695 mmHg 55%
    15:00 +11°C° 0 mm 1 m/s 694 mmHg 61%
    16:00 +10°C° 0 mm 1 m/s 694 mmHg 66%
    17:00 +8°C° 0 mm 1 m/s 693 mmHg 70%
    18:00 +6°C° 0 mm 1 m/s 693 mmHg 74%
    19:00 +4°C° 0 mm 1 m/s 693 mmHg 78%
    20:00 +3°C° 0 mm 1 m/s 693 mmHg 76%
    21:00 +3°C° 0 mm 1 m/s 693 mmHg 75%
    22:00 +3°C° 0 mm 1 m/s 693 mmHg 74%
    23:00 +2°C° 0 mm 1 m/s 693 mmHg 73%

    Mâine, 19 Februarie, Marţi

    Timp Temperatura Precipitaţii Vânt Presiune Umiditate
    00:00 +2°C° 0 mm 1 m/s 693 mmHg 72%
    01:00 +2°C° 0 mm 1 m/s 693 mmHg 71%
    02:00 +2°C° 0 mm 1 m/s 693 mmHg 71%
    03:00 +2°C° 0 mm 1 m/s 693 mmHg 71%
    04:00 +2°C° 0 mm 1 m/s 693 mmHg 71%
    05:00 +2°C° 0 mm 1 m/s 692 mmHg 71%
    06:00 +2°C° 0 mm 1 m/s 692 mmHg 71%
    07:00 +1°C° 0 mm 1 m/s 692 mmHg 72%
    08:00 +3°C° 0 mm 1 m/s 693 mmHg 68%
    09:00 +5°C° 0 mm 1 m/s 693 mmHg 64%
    10:00 +7°C° 0 mm 1 m/s 693 mmHg 61%
    11:00 +8°C° 0 mm 1 m/s 693 mmHg 59%
    12:00 +9°C° 0 mm 1 m/s 693 mmHg 58%
    13:00 +10°C° 0 mm 1 m/s 693 mmHg 57%
    14:00 +10°C° 0 mm 1 m/s 693 mmHg 61%
    15:00 +9°C° 0 mm 1 m/s 693 mmHg 66%
    16:00 +9°C° 0 mm 1 m/s 693 mmHg 71%
    17:00 +7°C° 0 mm 1 m/s 693 mmHg 77%
    18:00 +5°C° 0 mm 1 m/s 693 mmHg 82%
    19:00 +4°C° 0 mm 1 m/s 693 mmHg 88%
    20:00 +3°C° 0 mm 1 m/s 693 mmHg 87%
    21:00 +3°C° 0 mm 1 m/s 694 mmHg 87%
    22:00 +3°C° 0 mm 1 m/s 694 mmHg 87%
    23:00 +2°C° 0 mm 1 m/s 694 mmHg 85%

    Poimâine, 20 Februarie, Miercuri

    Timp Temperatura Precipitaţii Vânt Presiune Umiditate
    00:00 +2°C° 0 mm 1 m/s 694 mmHg 83%
    01:00 +2°C° 0 mm 1 m/s 694 mmHg 82%
    02:00 +2°C° 0 mm 1 m/s 694 mmHg 80%
    03:00 +2°C° 0 mm 1 m/s 694 mmHg 78%
    04:00 +2°C° 0 mm 1 m/s 694 mmHg 77%
    05:00 +2°C° 0 mm 1 m/s 694 mmHg 75%
    06:00 +2°C° 0 mm 1 m/s 694 mmHg 74%
    07:00 +1°C° 0 mm 1 m/s 694 mmHg 73%
    08:00 +3°C° 0 mm 1 m/s 695 mmHg 68%
    09:00 +4°C° 0 mm 0 m/s 695 mmHg 62%
    10:00 +6°C° 0 mm 0 m/s 696 mmHg 56%
    11:00 +8°C° 0 mm 0 m/s 696 mmHg 54%
    12:00 +9°C° 0 mm 0 m/s 696 mmHg 52%
    13:00 +10°C° 0 mm 0 m/s 696 mmHg 49%
    14:00 +9°C° 0 mm 0 m/s 696 mmHg 54%
    15:00 +9°C° 0 mm 0 m/s 696 mmHg 58%
    16:00 +8°C° 0 mm 0 m/s 696 mmHg 62%
    17:00 +6°C° 0 mm 0 m/s 696 mmHg 68%
    18:00 +5°C° 0 mm 0 m/s 696 mmHg 73%
    19:00 +3°C° 0 mm 0 m/s 696 mmHg 78%
    20:00 +3°C° 0 mm 0 m/s 696 mmHg 79%
    21:00 +4°C° 0 mm 1 m/s 697 mmHg 80%
    22:00 +3°C° 0 mm 1 m/s 697 mmHg 81%
    23:00 +3°C° 0 mm 1 m/s 697 mmHg 81%

    21 Februarie, Joi

    Timp Temperatura Precipitaţii Vânt Presiune Umiditate
    00:00 +3°C° 0 mm 1 m/s 697 mmHg 80%
    01:00 +3°C° 0 mm 1 m/s 697 mmHg 80%
    02:00 +3°C° 0 mm 1 m/s 697 mmHg 80%
    03:00 +3°C° 0 mm 1 m/s 697 mmHg 79%
    04:00 +3°C° 0 mm 1 m/s 697 mmHg 79%
    05:00 +3°C° 0 mm 1 m/s 697 mmHg 78%
    06:00 +3°C° 0 mm 1 m/s 698 mmHg 77%
    07:00 +3°C° 0 mm 1 m/s 698 mmHg 76%
    08:00 +4°C° 0 mm 0 m/s 698 mmHg 71%
    09:00 +6°C° 0 mm 0 m/s 699 mmHg 65%
    10:00 +8°C° 0 mm 0 m/s 699 mmHg 59%
    11:00 +9°C° 0 mm 0 m/s 699 mmHg 57%
    12:00 +10°C° 0 mm 0 m/s 699 mmHg 55%
    13:00 +11°C° 0 mm 0 m/s 699 mmHg 52%
    14:00 +11°C° 0 mm 0 m/s 699 mmHg 56%
    15:00 +10°C° 0 mm 0 m/s 699 mmHg 60%
    16:00 +10°C° 0 mm 0 m/s 698 mmHg 64%
    17:00 +8°C° 0 mm 0 m/s 698 mmHg 69%
    18:00 +8°C° 0 mm 1 m/s 699 mmHg 74%
    19:00 +6°C° 0 mm 1 m/s 699 mmHg 78%
    20:00 +6°C° 0 mm 1 m/s 699 mmHg 79%
    21:00 +5°C° 0 mm 1 m/s 699 mmHg 79%
    22:00 +5°C° 0 mm 1 m/s 699 mmHg 79%
    23:00 +5°C° 0 mm 1 m/s 699 mmHg 78%

    22 Februarie, Vineri

    Timp Temperatura Precipitaţii Vânt Presiune Umiditate
    00:00 +4°C° 0 mm 1 m/s 699 mmHg 77%
    01:00 +4°C° 0 mm 1 m/s 700 mmHg 77%
    02:00 +4°C° 0 mm 1 m/s 700 mmHg 76%
    03:00 +4°C° 0 mm 1 m/s 700 mmHg 76%
    04:00 +4°C° 0 mm 1 m/s 699 mmHg 76%
    05:00 +4°C° 0 mm 1 m/s 700 mmHg 77%
    06:00 +4°C° 0 mm 1 m/s 700 mmHg 77%
    07:00 +3°C° 0 mm 1 m/s 700 mmHg 78%
    08:00 +5°C° 0 mm 1 m/s 701 mmHg 73%
    09:00 +7°C° 0 mm 1 m/s 701 mmHg 67%
    10:00 +9°C° 0 mm 1 m/s 702 mmHg 62%
    11:00 +10°C° 0 mm 1 m/s 702 mmHg 59%
    12:00 +11°C° 0 mm 1 m/s 702 mmHg 56%
    13:00 +12°C° 0 mm 1 m/s 702 mmHg 53%
    14:00 +12°C° 0 mm 2 m/s 702 mmHg 56%
    15:00 +12°C° 0 mm 2 m/s 702 mmHg 60%
    16:00 +10°C° 0 mm 2 m/s 702 mmHg 63%
    17:00 +8°C° 0 mm 2 m/s 702 mmHg 69%
    18:00 +8°C° 0 mm 1 m/s 702 mmHg 75%
    19:00 +6°C° 0 mm 1 m/s 703 mmHg 81%
    20:00 +5°C° 0 mm 1 m/s 703 mmHg 82%
    21:00 +5°C° 0 mm 1 m/s 703 mmHg 84%
    22:00 +4°C° 0 mm 1 m/s 703 mmHg 85%
    23:00 +4°C° 0 mm 1 m/s 704 mmHg 85%

    23 Februarie, Sâmbătă

    Timp Temperatura Precipitaţii Vânt Presiune Umiditate
    00:00 +4°C° 0 mm 1 m/s 704 mmHg 86%
    01:00 +3°C° 0 mm 1 m/s 704 mmHg 86%
    02:00 +3°C° 0 mm 1 m/s 704 mmHg 88%
    03:00 +3°C° 0 mm 1 m/s 704 mmHg 89%
    04:00 +3°C° 0 mm 1 m/s 704 mmHg 90%
    05:00 +3°C° 0 mm 1 m/s 704 mmHg 90%
    06:00 +3°C° 0 mm 1 m/s 704 mmHg 90%
    07:00 +3°C° 0 mm 1 m/s 704 mmHg 90%
    08:00 +4°C° 0 mm 1 m/s 705 mmHg 85%
    09:00 +5°C° 0 mm 1 m/s 705 mmHg 79%
    10:00 +7°C° 0 mm 1 m/s 705 mmHg 73%
    11:00 +8°C° 0 mm 1 m/s 705 mmHg 67%
    12:00 +10°C° 0 mm 1 m/s 705 mmHg 62%
    13:00 +11°C° 0 mm 1 m/s 705 mmHg 56%
    14:00 +11°C° 0 mm 1 m/s 705 mmHg 58%
    15:00 +11°C° 0 mm 1 m/s 704 mmHg 60%
    16:00 +10°C° 0 mm 1 m/s 704 mmHg 62%
    17:00 +8°C° 0 mm 0 m/s 704 mmHg 68%
    18:00 +6°C° 0 mm 0 m/s 704 mmHg 74%
    19:00 +4°C° 0 mm 0 m/s 704 mmHg 79%
    20:00 +5°C° 0 mm 1 m/s 704 mmHg 78%
    21:00 +5°C° 0 mm 1 m/s 703 mmHg 76%
    22:00 +5°C° 0 mm 1 m/s 703 mmHg 75%
    23:00 +5°C° 0 mm 1 m/s 703 mmHg 73%
    Arată mai mult